Change the Weather History Date:

Monday, July 28, 2014

  Actual Average Record
Temperature  
Mean Temperature 65 °F 70 °F  
Max Temperature 71 °F 80 °F 93 °F (1952)
Min Temperature 59 °F 61 °F 42 °F (1962)
Degree Days  
Heating Degree Days 0 0  
Month to date heating degree days 15 0  
Since 1 June heating degree days 27 39  
Since 1 July heating degree days 15 0  
Cooling Degree Days 0 6  
Month to date cooling degree days 150 168  
Year to date cooling degree days 396 320  
Since 1 June cooling degree days 321 279  
Growing Degree Days 16 (Base 50)    
Moisture  
Dew Point 58 °F    
Average Humidity 80    
Maximum Humidity 93    
Minimum Humidity 67    
Precipitation  
Precipitation 0.06 in 0.17 in 2.10 in (1923)
Month to date precipitation 2.49 4.52  
Year to date precipitation 20.47 25.68  
Snow  
Snow 0.00 in - - ()
Month to date snowfall 0.0  
Since 1 September snowfall 76.3  
Snow Depth 0.00 in    
Sea Level Pressure  
Sea Level Pressure 29.87 in    
Wind  
Wind Speed 10 mph (WNW)    
Max Wind Speed 18 mph    
Max Gust Speed 27 mph    
Visibility 10 miles    
Events Rain    
T = Trace of Precipitation, MM = Missing Value Source: NWS Daily Summary

Daily Weather History Graph

Daily Weather History Graph

Search for Another Location

Airport or City:

Trip Planner

Search our weather history database for the weather conditions in past years. The results will help you decide how hot, cold, wet, or windy it might be!

Date:

Astronomy

Jul. 28, 2014 Rise Set
Actual Time 6:24 AM EDT 8:36 PM EDT
Civil Twilight 5:55 AM EDT 9:06 PM EDT
Nautical Twilight 5:19 AM EDT 9:42 PM EDT
Astronomical Twilight 4:39 AM EDT 10:21 PM EDT
Moon 8:02 AM EDT (7/28) 9:21 PM EDT (7/28)
Length of Visible Light 15h 11m
Length of Day
14h 12m
Waxing Crescent, 3% of the Moon is Illuminated
Jul 28
Waxing Crescent
Aug 3
First Quarter
Aug 10
Full
Aug 17
Last Quarter
Aug 25
New

Hourly Weather History & Observations

Time (EDT) Temp. Dew Point Humidity Pressure Visibility Wind Dir Wind Speed Gust Speed Precip Events Conditions
12:51 AM 66.9 °F 63.0 °F 87% 29.77 in 6.0 mi WSW 11.5 mph - 0.01 in Rain Light Rain
1:51 AM 66.0 °F 63.0 °F 90% 29.77 in 10.0 mi SW 6.9 mph - 0.02 in   Scattered Clouds
2:20 AM 66.0 °F 63.0 °F 90% 29.86 in 10.0 mi SW 4.6 mph - N/A   Overcast
2:36 AM 66.0 °F 64.0 °F 93% 29.86 in 9.0 mi West 5.8 mph - N/A   Overcast
2:49 AM 66.2 °F 64.4 °F 94% 29.85 in 7.0 mi SW 6.9 mph - N/A   Overcast
2:51 AM 66.0 °F 64.0 °F 93% 29.76 in 7.0 mi WSW 6.9 mph - N/A   Overcast
3:51 AM 66.0 °F 63.0 °F 90% 29.76 in 10.0 mi West 10.4 mph - N/A   Mostly Cloudy
4:11 AM 64.9 °F 63.0 °F 93% 29.85 in 9.0 mi West 8.1 mph - N/A   Mostly Cloudy
4:51 AM 64.0 °F 61.0 °F 90% 29.75 in 10.0 mi West 10.4 mph - N/A   Partly Cloudy
5:51 AM 63.0 °F 60.1 °F 90% 29.77 in 10.0 mi West 6.9 mph - N/A   Mostly Cloudy
6:13 AM 63.0 °F 60.1 °F 90% 29.86 in 10.0 mi West 5.8 mph - N/A   Overcast
6:51 AM 63.0 °F 59.0 °F 87% 29.78 in 10.0 mi West 11.5 mph - 0.00 in   Overcast
7:11 AM 63.0 °F 59.0 °F 87% 29.87 in 10.0 mi West 10.4 mph - N/A   Mostly Cloudy
7:51 AM 64.0 °F 59.0 °F 84% 29.80 in 10.0 mi West 8.1 mph - N/A   Mostly Cloudy
8:51 AM 63.0 °F 57.0 °F 81% 29.82 in 10.0 mi WNW 11.5 mph - N/A   Overcast
9:51 AM 64.0 °F 57.0 °F 78% 29.83 in 10.0 mi West 12.7 mph - N/A   Overcast
10:51 AM 66.0 °F 55.9 °F 70% 29.83 in 10.0 mi WNW 15.0 mph 24.2 mph N/A   Overcast
11:51 AM 66.0 °F 57.0 °F 73% 29.85 in 10.0 mi NW 15.0 mph 21.9 mph N/A   Overcast
12:06 PM 66.0 °F 57.0 °F 73% 29.93 in 10.0 mi West 12.7 mph - N/A   Overcast
12:36 PM 64.9 °F 55.9 °F 73% 29.93 in 10.0 mi WNW 11.5 mph 23.0 mph N/A   Overcast
12:51 PM 64.9 °F 55.9 °F 73% 29.86 in 10.0 mi NW 15.0 mph - N/A   Overcast
1:28 PM 64.0 °F 57.0 °F 78% 29.94 in 10.0 mi WNW 11.5 mph 17.3 mph 0.00 in   Overcast
1:51 PM 66.0 °F 57.9 °F 75% 29.87 in 10.0 mi WNW 8.1 mph - 0.00 in   Overcast
2:02 PM 64.9 °F 57.0 °F 75% 29.94 in 10.0 mi NW 11.5 mph - N/A   Overcast
2:51 PM 66.9 °F 55.9 °F 68% 29.86 in 10.0 mi WNW 16.1 mph 23.0 mph N/A   Mostly Cloudy
3:04 PM 68.0 °F 55.9 °F 65% 29.94 in 10.0 mi WNW 17.3 mph 24.2 mph N/A   Mostly Cloudy
3:51 PM 66.9 °F 55.0 °F 66% 29.86 in 10.0 mi NW 15.0 mph - N/A   Mostly Cloudy
4:51 PM 66.0 °F 55.0 °F 68% 29.89 in 10.0 mi NW 13.8 mph - N/A   Overcast
5:51 PM 64.9 °F 54.0 °F 68% 29.91 in 10.0 mi NW 12.7 mph - N/A   Overcast
6:51 PM 64.9 °F 55.0 °F 70% 29.91 in 10.0 mi NW 11.5 mph - N/A   Overcast
7:35 PM 61.0 °F 57.0 °F 87% 29.99 in 6.0 mi NW 5.8 mph - 0.01 in Rain Light Rain
7:43 PM 61.0 °F 57.0 °F 87% 29.98 in 10.0 mi NW 5.8 mph - 0.01 in   Overcast
7:51 PM 61.0 °F 57.9 °F 90% 29.93 in 10.0 mi NW 5.8 mph - 0.01 in   Overcast
8:51 PM 60.1 °F 55.9 °F 86% 29.94 in 10.0 mi WNW 6.9 mph - N/A   Overcast
9:51 PM 60.1 °F 55.9 °F 86% 29.95 in 10.0 mi Calm Calm - N/A   Overcast
10:51 PM 60.1 °F 57.0 °F 90% 29.95 in 10.0 mi WNW 4.6 mph - N/A   Mostly Cloudy
11:30 PM 60.1 °F 55.9 °F 86% 30.01 in 10.0 mi NW 3.5 mph - N/A   Overcast
11:49 PM 60.8 °F 55.4 °F 82% 30.00 in 10.0 mi WNW 4.6 mph - N/A   Mostly Cloudy
11:51 PM 59.0 °F 55.9 °F 90% 29.94 in 10.0 mi West 3.5 mph - N/A   Overcast